Time,TemperatureF,DewpointF,PressureIn,WindDirection,WindDirectionDegrees,WindSpeedMPH,WindSpeedGustMPH,Humidity,HourlyPrecipIn,Conditions,Clouds,dailyrainin,SolarRadiationWatts/m^2,SoftwareType,DateUTC
2013-06-26 00:02:00,77.0,75.0,29.99,SE,128,0.0,1.0,94,0.00,,,0.00,0.000000,,2013-06-26 05:02:00,
2013-06-26 00:11:00,77.0,75.0,29.99,SE,128,0.0,0.0,94,0.00,,,0.00,0.000000,,2013-06-26 05:11:00,
2013-06-26 00:22:00,77.0,75.0,29.99,SE,128,0.0,0.0,94,0.00,,,0.00,0.000000,,2013-06-26 05:22:00,
2013-06-26 00:34:00,77.0,75.0,29.99,SE,128,0.0,1.0,94,0.00,,,0.00,0.000000,,2013-06-26 05:34:00,
2013-06-26 00:43:00,77.0,75.0,29.99,SE,128,0.0,1.0,95,0.00,,,0.00,0.000000,,2013-06-26 05:43:00,
2013-06-26 00:52:00,77.0,75.0,29.99,SE,128,0.0,1.0,95,0.00,,,0.00,0.000000,,2013-06-26 05:52:00,
2013-06-26 01:02:00,76.0,74.0,29.99,SE,128,0.0,0.0,95,0.00,,,0.00,0.000000,,2013-06-26 06:02:00,
2013-06-26 01:11:00,76.0,74.0,29.98,SE,128,0.0,0.0,95,0.00,,,0.00,0.000000,,2013-06-26 06:11:00,
2013-06-26 01:22:00,76.0,74.0,29.99,SE,128,0.0,0.0,95,0.00,,,0.00,0.000000,,2013-06-26 06:22:00,
2013-06-26 01:34:00,76.0,75.0,29.98,SE,128,0.0,0.0,96,0.00,,,0.00,0.000000,,2013-06-26 06:34:00,
2013-06-26 01:43:00,76.0,75.0,29.98,SE,128,0.0,0.0,96,0.00,,,0.00,0.000000,,2013-06-26 06:43:00,
2013-06-26 01:53:00,76.0,75.0,29.98,SE,128,0.0,0.0,96,0.00,,,0.00,0.000000,,2013-06-26 06:53:00,
2013-06-26 02:01:00,76.0,75.0,29.98,SE,128,0.0,0.0,96,0.00,,,0.00,0.000000,,2013-06-26 07:01:00,
2013-06-26 02:11:00,76.0,75.0,29.98,SE,128,0.0,0.0,96,0.00,,,0.00,0.000000,,2013-06-26 07:11:00,
2013-06-26 02:22:00,76.0,75.0,29.98,SE,128,0.0,0.0,96,0.00,,,0.00,0.000000,,2013-06-26 07:22:00,
2013-06-26 02:33:00,76.0,75.0,29.98,SE,128,0.0,0.0,96,0.00,,,0.00,0.000000,,2013-06-26 07:33:00,
2013-06-26 02:43:00,76.0,75.0,29.98,SE,128,0.0,0.0,96,0.00,,,0.00,0.000000,,2013-06-26 07:43:00,
2013-06-26 02:53:00,76.0,75.0,29.98,SE,128,0.0,0.0,96,0.00,,,0.00,0.000000,,2013-06-26 07:53:00,
2013-06-26 03:01:00,76.0,75.0,29.98,SE,128,0.0,1.0,96,0.00,,,0.00,0.000000,,2013-06-26 08:01:00,
2013-06-26 03:11:00,76.0,75.0,29.98,SE,128,0.0,0.0,97,0.00,,,0.00,0.000000,,2013-06-26 08:11:00,
2013-06-26 03:22:00,76.0,75.0,29.98,SE,128,0.0,0.0,97,0.00,,,0.00,0.000000,,2013-06-26 08:22:00,
2013-06-26 03:33:00,76.0,75.0,29.98,SE,128,0.0,0.0,97,0.00,,,0.00,0.000000,,2013-06-26 08:33:00,
2013-06-26 03:42:00,76.0,75.0,29.98,SE,128,0.0,0.0,97,0.00,,,0.00,0.000000,,2013-06-26 08:42:00,
2013-06-26 03:52:00,76.0,75.0,29.98,SE,128,0.0,0.0,97,0.00,,,0.00,0.000000,,2013-06-26 08:52:00,
2013-06-26 04:01:00,76.0,75.0,29.98,SE,128,0.0,1.0,97,0.00,,,0.00,0.000000,,2013-06-26 09:01:00,
2013-06-26 04:11:00,76.0,75.0,29.98,SE,128,0.0,0.0,97,0.00,,,0.00,0.000000,,2013-06-26 09:11:00,
2013-06-26 04:22:00,76.0,75.0,29.98,SE,128,0.0,0.0,97,0.00,,,0.00,0.000000,,2013-06-26 09:22:00,
2013-06-26 04:33:00,76.0,75.0,29.98,SE,128,0.0,0.0,97,0.00,,,0.00,0.000000,,2013-06-26 09:33:00,
2013-06-26 04:43:00,76.0,75.0,29.98,SE,128,0.0,1.0,97,0.00,,,0.00,0.000000,,2013-06-26 09:43:00,
2013-06-26 04:53:00,75.0,74.0,29.98,SE,128,0.0,0.0,97,0.00,,,0.00,0.000000,,2013-06-26 09:53:00,
2013-06-26 05:01:00,75.0,74.0,29.98,SE,128,0.0,0.0,97,0.00,,,0.00,0.000000,,2013-06-26 10:01:00,
2013-06-26 05:12:00,75.0,74.0,29.98,SE,128,0.0,1.0,97,0.00,,,0.00,0.000000,,2013-06-26 10:12:00,
2013-06-26 05:22:00,75.0,74.0,29.98,SE,128,0.0,1.0,98,0.00,,,0.00,0.000000,,2013-06-26 10:22:00,
2013-06-26 05:34:00,75.0,74.0,29.98,SE,128,0.0,0.0,98,0.00,,,0.00,0.000000,,2013-06-26 10:34:00,
2013-06-26 05:43:00,75.0,74.0,29.98,SE,128,0.0,0.0,98,0.00,,,0.00,0.000000,,2013-06-26 10:43:00,
2013-06-26 05:53:00,75.0,74.0,29.99,SE,128,0.0,0.0,98,0.00,,,0.00,0.000000,,2013-06-26 10:53:00,
2013-06-26 06:02:00,75.0,74.0,29.99,SE,128,0.0,0.0,98,0.00,,,0.00,0.000000,,2013-06-26 11:02:00,
2013-06-26 06:11:00,75.0,74.0,29.99,SE,128,0.0,0.0,98,0.00,,,0.00,0.000000,,2013-06-26 11:11:00,
2013-06-26 06:22:00,75.0,74.0,29.99,SE,128,0.0,0.0,98,0.00,,,0.00,0.000000,,2013-06-26 11:22:00,
2013-06-26 06:33:00,75.0,74.0,29.99,SE,128,0.0,1.0,98,0.00,,,0.00,0.000000,,2013-06-26 11:33:00,
2013-06-26 06:44:00,75.0,74.0,29.99,SE,128,0.0,0.0,98,0.00,,,0.00,0.000000,,2013-06-26 11:44:00,
2013-06-26 06:52:00,75.0,74.0,30.00,SE,128,0.0,0.0,98,0.00,,,0.00,5.000000,,2013-06-26 11:52:00,
2013-06-26 07:02:00,75.0,74.0,30.00,SE,128,0.0,0.0,98,0.00,,,0.00,11.000000,,2013-06-26 12:02:00,
2013-06-26 07:12:00,75.0,74.0,30.00,SE,128,0.0,0.0,98,0.00,,,0.00,14.000000,,2013-06-26 12:12:00,
2013-06-26 07:22:00,75.0,74.0,30.00,SE,128,0.0,0.0,98,0.00,,,0.00,19.000000,,2013-06-26 12:22:00,
2013-06-26 07:33:00,75.0,74.0,30.01,SE,128,0.0,0.0,98,0.00,,,0.00,25.000000,,2013-06-26 12:33:00,
2013-06-26 07:42:00,75.0,74.0,30.01,SE,137,0.0,1.0,98,0.00,,,0.00,30.000000,,2013-06-26 12:42:00,
2013-06-26 07:52:00,75.0,74.0,30.01,SE,137,0.0,0.0,98,0.00,,,0.00,32.000000,,2013-06-26 12:52:00,
2013-06-26 08:02:00,76.0,75.0,30.02,SE,137,0.0,0.0,98,0.00,,,0.00,35.000000,,2013-06-26 13:02:00,
2013-06-26 08:11:00,76.0,76.0,30.02,SE,137,0.0,1.0,99,0.00,,,0.00,39.000000,,2013-06-26 13:11:00,
2013-06-26 08:22:00,76.0,75.0,30.02,SE,135,0.0,1.0,98,0.00,,,0.00,42.000000,,2013-06-26 13:22:00,
2013-06-26 08:34:00,77.0,77.0,30.02,NW,310,0.0,4.0,99,0.00,,,0.00,46.000000,,2013-06-26 13:34:00,
2013-06-26 08:42:00,78.0,78.0,30.02,ENE,58,0.0,4.0,99,0.00,,,0.00,49.000000,,2013-06-26 13:42:00,
2013-06-26 08:53:00,78.0,78.0,30.02,ENE,58,0.0,4.0,99,0.00,,,0.00,49.000000,,2013-06-26 13:53:00,
2013-06-26 09:02:00,79.0,79.0,30.03,WNW,291,1.0,3.0,99,0.00,,,0.00,60.000000,,2013-06-26 14:02:00,
2013-06-26 09:12:00,79.0,78.0,30.03,NNE,25,1.0,5.0,98,0.00,,,0.00,137.000000,,2013-06-26 14:12:00,
2013-06-26 09:24:00,79.0,78.0,30.03,ESE,108,1.0,5.0,98,0.00,,,0.00,374.000000,,2013-06-26 14:24:00,
2013-06-26 09:34:00,80.0,79.0,30.03,North,355,1.0,5.0,97,0.00,,,0.00,436.000000,,2013-06-26 14:34:00,
2013-06-26 09:42:00,82.0,80.0,30.03,WNW,298,1.0,6.0,94,0.00,,,0.00,538.000000,,2013-06-26 14:42:00,
2013-06-26 09:52:00,84.0,80.0,30.04,ESE,110,1.0,3.0,87,0.00,,,0.00,566.000000,,2013-06-26 14:52:00,
2013-06-26 10:02:00,86.0,81.0,30.04,ENE,69,1.0,4.0,84,0.00,,,0.00,601.000000,,2013-06-26 15:02:00,
2013-06-26 10:11:00,87.0,80.0,30.04,WNW,290,0.0,7.0,80,0.00,,,0.00,603.000000,,2013-06-26 15:11:00,
2013-06-26 10:22:00,87.0,79.0,30.04,SSE,168,1.0,5.0,77,0.00,,,0.00,621.000000,,2013-06-26 15:22:00,
2013-06-26 10:34:00,87.0,79.0,30.03,SE,124,0.0,2.0,77,0.00,,,0.00,643.000000,,2013-06-26 15:34:00,
2013-06-26 10:44:00,88.0,79.0,30.03,ENE,63,0.0,3.0,74,0.00,,,0.00,677.000000,,2013-06-26 15:44:00,
2013-06-26 10:53:00,89.0,78.0,30.03,WNW,296,1.0,8.0,70,0.00,,,0.00,721.000000,,2013-06-26 15:53:00,
2013-06-26 11:01:00,90.0,81.0,30.03,NE,51,0.0,1.0,74,0.00,,,0.00,775.000000,,2013-06-26 16:01:00,
2013-06-26 11:22:00,91.0,79.0,30.04,East,88,0.0,3.0,69,0.00,,,0.00,821.000000,,2013-06-26 16:22:00,
2013-06-26 11:34:00,91.0,79.0,30.04,NNE,23,0.0,5.0,69,0.00,,,0.00,810.000000,,2013-06-26 16:34:00,
2013-06-26 11:43:00,92.0,79.0,30.04,ESE,108,0.0,2.0,67,0.00,,,0.00,877.000000,,2013-06-26 16:43:00,
2013-06-26 11:52:00,92.0,80.0,30.04,ESE,107,0.0,4.0,69,0.00,,,0.00,875.000000,,2013-06-26 16:52:00,
2013-06-26 12:02:00,92.0,80.0,30.03,East,101,1.0,8.0,68,0.00,,,0.00,912.000000,,2013-06-26 17:02:00,
2013-06-26 12:11:00,92.0,79.0,30.03,ESE,105,0.0,2.0,66,0.00,,,0.00,925.000000,,2013-06-26 17:11:00,
2013-06-26 12:23:00,93.0,78.0,30.03,East,98,1.0,5.0,62,0.00,,,0.00,919.000000,,2013-06-26 17:23:00,
2013-06-26 12:33:00,92.0,77.0,30.03,ENE,62,1.0,6.0,62,0.00,,,0.00,932.000000,,2013-06-26 17:33:00,
2013-06-26 12:43:00,93.0,79.0,30.03,NNW,329,0.0,9.0,63,0.00,,,0.00,937.000000,,2013-06-26 17:43:00,
2013-06-26 12:52:00,93.0,79.0,30.03,ENE,57,0.0,1.0,63,0.00,,,0.00,946.000000,,2013-06-26 17:52:00,
2013-06-26 13:01:00,93.0,75.0,30.03,ESE,123,1.0,6.0,57,0.00,,,0.00,946.000000,,2013-06-26 18:01:00,
2013-06-26 13:11:00,94.0,78.0,30.03,East,89,0.0,4.0,61,0.00,,,0.00,974.000000,,2013-06-26 18:11:00,
2013-06-26 13:22:00,94.0,77.0,30.03,East,98,0.0,4.0,59,0.00,,,0.00,967.000000,,2013-06-26 18:22:00,
2013-06-26 13:34:00,94.0,77.0,30.03,East,98,0.0,4.0,59,0.00,,,0.00,967.000000,,2013-06-26 18:34:00,
2013-06-26 13:43:00,94.0,75.0,30.02,ENE,63,0.0,5.0,55,0.00,,,0.00,1002.000000,,2013-06-26 18:43:00,
2013-06-26 13:52:00,94.0,78.0,30.02,NE,40,0.0,5.0,60,0.00,,,0.00,1000.000000,,2013-06-26 18:52:00,
2013-06-26 14:11:00,94.0,77.0,30.01,East,100,0.0,1.0,58,0.00,,,0.00,974.000000,,2013-06-26 19:11:00,
2013-06-26 14:22:00,94.0,77.0,30.01,ESE,113,0.0,1.0,58,0.00,,,0.00,977.000000,,2013-06-26 19:22:00,
2013-06-26 14:33:00,94.0,77.0,30.01,ESE,113,0.0,1.0,58,0.00,,,0.00,977.000000,,2013-06-26 19:33:00,
2013-06-26 14:42:00,94.0,75.0,30.00,North,360,0.0,4.0,55,0.00,,,0.00,958.000000,,2013-06-26 19:42:00,
2013-06-26 15:12:00,95.0,77.0,29.99,WNW,290,0.0,2.0,57,0.00,,,0.00,925.000000,,2013-06-26 20:12:00,
2013-06-26 15:22:00,95.0,77.0,29.99,East,99,0.0,2.0,56,0.00,,,0.00,923.000000,,2013-06-26 20:22:00,
2013-06-26 15:33:00,95.0,75.0,29.99,ESE,119,1.0,4.0,53,0.00,,,0.00,888.000000,,2013-06-26 20:33:00,
2013-06-26 15:43:00,95.0,77.0,29.99,SSW,202,0.0,3.0,57,0.00,,,0.00,867.000000,,2013-06-26 20:43:00,
2013-06-26 15:52:00,95.0,77.0,29.99,SSW,202,0.0,3.0,57,0.00,,,0.00,867.000000,,2013-06-26 20:52:00,
2013-06-26 16:43:00,94.0,77.0,29.97,East,86,1.0,2.0,59,0.00,,,0.00,95.000000,,2013-06-26 21:43:00,
2013-06-26 16:52:00,94.0,77.0,29.97,East,86,1.0,2.0,59,0.00,,,0.00,95.000000,,2013-06-26 21:52:00,
2013-06-26 17:01:00,92.0,79.0,29.96,NE,42,0.0,2.0,65,0.00,,,0.00,125.000000,,2013-06-26 22:01:00,
2013-06-26 17:11:00,91.0,78.0,29.96,SSE,147,0.0,4.0,65,0.00,,,0.00,223.000000,,2013-06-26 22:11:00,
2013-06-26 17:34:00,90.0,79.0,29.96,NE,46,0.0,2.0,70,0.00,,,0.00,98.000000,,2013-06-26 22:34:00,
2013-06-26 17:43:00,90.0,79.0,29.96,ESE,108,1.0,2.0,71,0.00,,,0.00,494.000000,,2013-06-26 22:43:00,
2013-06-26 17:52:00,90.0,80.0,29.96,WNW,296,0.0,2.0,72,0.00,,,0.00,127.000000,,2013-06-26 22:52:00,
2013-06-26 18:02:00,90.0,80.0,29.96,North,5,0.0,2.0,73,0.00,,,0.00,74.000000,,2013-06-26 23:02:00,
2013-06-26 18:11:00,89.0,80.0,29.96,East,93,1.0,5.0,74,0.00,,,0.00,90.000000,,2013-06-26 23:11:00,
2013-06-26 18:22:00,89.0,80.0,29.96,SE,125,1.0,4.0,75,0.00,,,0.00,90.000000,,2013-06-26 23:22:00,
2013-06-26 18:34:00,88.0,79.0,29.96,East,85,0.0,2.0,75,0.00,,,0.00,69.000000,,2013-06-26 23:34:00,
2013-06-26 18:43:00,88.0,79.0,29.96,SSE,155,0.0,1.0,75,0.00,,,0.00,137.000000,,2013-06-26 23:43:00,
2013-06-26 18:52:00,87.0,79.0,29.96,ENE,73,1.0,6.0,77,0.00,,,0.00,44.000000,,2013-06-26 23:52:00,
2013-06-26 19:01:00,87.0,79.0,29.96,ENE,72,0.0,5.0,77,0.00,,,0.00,44.000000,,2013-06-27 00:01:00,
2013-06-26 19:11:00,87.0,80.0,29.96,ESE,120,0.0,1.0,79,0.00,,,0.00,37.000000,,2013-06-27 00:11:00,
2013-06-26 19:22:00,86.0,79.0,29.95,SE,144,0.0,3.0,79,0.00,,,0.00,39.000000,,2013-06-27 00:22:00,
2013-06-26 19:33:00,85.0,78.0,29.95,ESE,119,0.0,1.0,80,0.00,,,0.00,30.000000,,2013-06-27 00:33:00,
2013-06-26 19:42:00,85.0,78.0,29.96,SE,142,0.0,1.0,81,0.00,,,0.00,26.000000,,2013-06-27 00:42:00,
2013-06-26 19:53:00,85.0,79.0,29.96,SE,142,0.0,1.0,82,0.00,,,0.00,23.000000,,2013-06-27 00:53:00,
2013-06-26 20:01:00,85.0,79.0,29.96,SE,142,0.0,1.0,82,0.00,,,0.00,23.000000,,2013-06-27 01:01:00,
2013-06-26 20:11:00,85.0,79.0,29.96,SE,142,0.0,1.0,82,0.00,,,0.00,23.000000,,2013-06-27 01:11:00,
2013-06-26 20:21:00,84.0,78.0,29.96,SE,139,0.0,1.0,83,0.00,,,0.00,16.000000,,2013-06-27 01:21:00,
2013-06-26 20:32:00,84.0,78.0,29.96,East,95,0.0,3.0,83,0.00,,,0.00,12.000000,,2013-06-27 01:32:00,
2013-06-26 20:43:00,82.0,77.0,29.96,SE,133,0.0,0.0,85,0.00,,,0.00,0.000000,,2013-06-27 01:43:00,
2013-06-26 20:53:00,82.0,77.0,29.96,SE,133,0.0,0.0,85,0.00,,,0.00,0.000000,,2013-06-27 01:53:00,
2013-06-26 21:01:00,82.0,77.0,29.96,SE,133,0.0,1.0,86,0.00,,,0.00,0.000000,,2013-06-27 02:01:00,
2013-06-26 21:11:00,82.0,77.0,29.96,SE,133,0.0,1.0,86,0.00,,,0.00,0.000000,,2013-06-27 02:11:00,
2013-06-26 21:22:00,81.0,77.0,29.96,SE,133,0.0,0.0,87,0.00,,,0.00,0.000000,,2013-06-27 02:22:00,
2013-06-26 21:32:00,81.0,77.0,29.96,SE,133,0.0,0.0,87,0.00,,,0.00,0.000000,,2013-06-27 02:32:00,
2013-06-26 21:42:00,81.0,77.0,29.96,SE,133,0.0,0.0,88,0.00,,,0.00,0.000000,,2013-06-27 02:42:00,
2013-06-26 21:52:00,80.0,77.0,29.97,SE,133,0.0,1.0,91,0.00,,,0.00,0.000000,,2013-06-27 02:52:00,
2013-06-26 22:02:00,79.0,76.0,29.97,SE,133,0.0,0.0,91,0.00,,,0.00,0.000000,,2013-06-27 03:02:00,
2013-06-26 22:11:00,79.0,76.0,29.97,SE,133,0.0,0.0,91,0.00,,,0.00,0.000000,,2013-06-27 03:11:00,
2013-06-26 22:21:00,79.0,76.0,29.97,SE,133,0.0,0.0,91,0.00,,,0.00,0.000000,,2013-06-27 03:21:00,
2013-06-26 22:32:00,79.0,76.0,29.97,SE,133,0.0,0.0,92,0.00,,,0.00,0.000000,,2013-06-27 03:32:00,
2013-06-26 22:42:00,79.0,76.0,29.97,SE,133,0.0,0.0,92,0.00,,,0.00,0.000000,,2013-06-27 03:42:00,
2013-06-26 22:52:00,78.0,76.0,29.98,SE,133,0.0,0.0,93,0.00,,,0.00,0.000000,,2013-06-27 03:52:00,
2013-06-26 23:01:00,78.0,76.0,29.98,SE,133,0.0,0.0,93,0.00,,,0.00,0.000000,,2013-06-27 04:01:00,
2013-06-26 23:11:00,78.0,76.0,29.98,SE,133,0.0,0.0,93,0.00,,,0.00,0.000000,,2013-06-27 04:11:00,
2013-06-26 23:32:00,78.0,76.0,29.98,SE,133,0.0,0.0,94,0.00,,,0.00,0.000000,,2013-06-27 04:32:00,
2013-06-26 23:42:00,77.0,75.0,30.00,SE,133,0.0,1.0,95,0.00,,,0.00,0.000000,,2013-06-27 04:42:00,
2013-06-26 23:53:00,77.0,75.0,30.00,SE,133,0.0,0.0,95,0.00,,,0.00,0.000000,,2013-06-27 04:53:00,